Flag for U.S.A. Weather past 2 weeks in Metlakatla, Alaska, U.S.A.

Now
50 °F

Mostly cloudy.


Feels Like: 46 °F
Forecast: 47 / 50 °F
Wind: 10 mph from Southeast

Location: Metlakatla - Metlakatla Seaplane Base

Current Time: Oct 24, 2014 at 12:59:02 PM

Latest Report: Oct 24, 2014 at 12:36 PM


Visibility: 10 mi

Pressure: 29.91 "Hg

Humidity: 62%

Dew point: 37 °F

Location of MetlakatlaLocation

Historic Weather in Metlakatla — Graph

°F

Metlakatla temperature yesterday

Maximum temperature yesterday: 52 °F (at 3:16 PM)
Minimum temperature yesterday: 46 °F (at 7:16 AM)
Average temperature yesterday: 48 °F

Past Weeks' High & Low Weather Summary

 TemperatureHumidityPressure
High59 °F (Oct 9, 2:16 PM)94% (Oct 10, 4:56 AM)29.96 "Hg (Oct 10, 4:56 AM)
Low45 °F (Oct 14, 4:56 AM)58% (Oct 14, 10:56 AM)29.02 "Hg (Oct 19, 8:36 AM)
Average52 °F78%29.50 "Hg
* Reported Oct 9 11:16 AM — Oct 24 11:36 AM, Metlakatla, Weather by CustomWeather, © 2014

Note: Actual official high and low records may vary slightly from our data, if they occured in-between our weather recording intervals... More about our weather records

Advertising

Metlakatla weather history for previous 24 hours

 ConditionsComfort  
Time TempWeatherWind HumidityBarometerVisibility
11:36 AM
Oct 24
52 °FCloudy.14 mph58%29.90 "Hg10 mi
11:16 AM52 °FCloudy.16 mph58%29.90 "Hg10 mi
10:56 AM52 °FBroken clouds.10 mph58%29.89 "Hg10 mi
10:36 AM52 °FBroken clouds.10 mph58%29.89 "Hg10 mi
10:16 AM52 °FCloudy.10 mph58%29.88 "Hg10 mi
9:56 AM52 °FMostly cloudy.13 mph58%29.88 "Hg10 mi
9:36 AM52 °FCloudy.8 mph58%29.88 "Hg10 mi
9:16 AM52 °FBroken clouds.9 mph58%29.87 "Hg10 mi
8:56 AM52 °FCloudy.14 mph58%29.87 "Hg10 mi
8:36 AM50 °FMostly cloudy.10 mph62%29.87 "Hg10 mi
8:16 AM50 °FPassing clouds.9 mph67%29.86 "Hg10 mi
7:56 AM50 °FMostly cloudy.12 mph62%29.85 "Hg10 mi
7:36 AM50 °FOvercast.7 mph62%29.86 "Hg10 mi
6:56 AM50 °FMostly cloudy.10 mph62%29.84 "Hg10 mi
6:36 AM48 °FMostly cloudy.6 mph66%29.85 "Hg10 mi
6:16 AM48 °FOvercast.13 mph71%29.84 "Hg10 mi
5:56 AM48 °FOvercast.8 mph66%29.84 "Hg10 mi
5:36 AM48 °FPartly cloudy.9 mph66%29.83 "Hg10 mi
5:16 AM50 °FOvercast.10 mph62%29.83 "Hg10 mi
4:56 AM48 °FPartly cloudy.9 mph66%29.83 "Hg10 mi
4:36 AM48 °FMostly cloudy.14 mph66%29.82 "Hg10 mi
4:16 AM48 °FPartly cloudy.6 mph66%29.82 "Hg10 mi
3:56 AM48 °FOvercast.8 mph66%29.82 "Hg10 mi
3:36 AM48 °FMostly cloudy.7 mph71%29.82 "Hg10 mi
3:16 AM48 °FOvercast.10 mph66%29.82 "Hg10 mi
2:56 AM48 °FPartly cloudy.12 mph66%29.82 "Hg10 mi
2:36 AM48 °FOvercast.7 mph66%29.82 "Hg10 mi
2:16 AM48 °FMostly cloudy.9 mph71%29.82 "Hg10 mi
1:56 AM48 °FOvercast.10 mph71%29.81 "Hg10 mi
1:36 AM48 °FOvercast.12 mph71%29.81 "Hg10 mi
1:16 AM48 °FPassing clouds.5 mph71%29.81 "Hg10 mi
12:56 AM48 °FMostly cloudy.8 mph66%29.81 "Hg10 mi
12:36 AM48 °FPartly cloudy.8 mph71%29.81 "Hg10 mi
12:16 AM48 °FOvercast.8 mph71%29.80 "Hg10 mi
11:56 PM
Oct 23
48 °FMostly cloudy.9 mph71%29.80 "Hg10 mi
11:36 PM48 °FOvercast.8 mph66%29.80 "Hg10 mi
11:16 PM48 °FOvercast.8 mph66%29.80 "Hg10 mi
10:56 PM48 °FMostly cloudy.No wind66%29.79 "Hg10 mi
10:36 PM48 °FMostly cloudy.6 mph66%29.79 "Hg10 mi
10:16 PM48 °FMostly cloudy.6 mph66%29.78 "Hg10 mi
9:56 PM48 °FOvercast.7 mph66%29.77 "Hg10 mi
9:36 PM48 °FMostly cloudy.6 mph66%29.76 "Hg10 mi
9:16 PM48 °FPassing clouds.3 mph66%29.76 "Hg10 mi
8:56 PM48 °FPartly cloudy.6 mph66%29.75 "Hg10 mi
8:36 PM46 °FOvercast.5 mph76%29.75 "Hg10 mi
8:16 PM48 °FMostly cloudy.7 mph66%29.74 "Hg10 mi
7:56 PM48 °FMostly cloudy.6 mph66%29.74 "Hg10 mi
7:36 PM48 °FMostly cloudy.7 mph66%29.73 "Hg10 mi
7:16 PM48 °FMostly cloudy.7 mph66%29.73 "Hg10 mi
6:56 PM48 °FOvercast.No wind66%29.72 "Hg10 mi
6:36 PM48 °FPartly cloudy.5 mph66%29.71 "Hg10 mi
6:16 PM48 °FPartly sunny.5 mph66%29.70 "Hg10 mi
5:56 PM48 °FPartly sunny.5 mph71%29.71 "Hg10 mi
5:36 PM48 °FMostly cloudy.8 mph71%29.70 "Hg10 mi
5:16 PM48 °FMostly cloudy.3 mph66%29.70 "Hg10 mi
4:56 PM48 °FCloudy.5 mph71%29.69 "Hg10 mi
4:36 PM48 °FCloudy.3 mph71%29.69 "Hg10 mi
4:16 PM48 °FBroken clouds.No wind71%29.68 "Hg10 mi
3:56 PM50 °FPartly sunny.5 mph67%29.68 "Hg10 mi
3:36 PM52 °FPartly sunny.6 mph62%29.67 "Hg10 mi
3:16 PM52 °FBroken clouds.9 mph62%29.67 "Hg10 mi
2:56 PM50 °FPassing clouds.5 mph67%29.66 "Hg10 mi
2:36 PM48 °FPassing clouds.8 mph76%29.66 "Hg10 mi
2:16 PM48 °FSunny.5 mph76%29.66 "Hg10 mi
1:36 PM50 °FScattered clouds.7 mph71%29.64 "Hg10 mi
12:56 PM50 °FBroken clouds.5 mph76%29.64 "Hg10 mi
12:36 PM50 °FBroken clouds.8 mph76%29.63 "Hg10 mi
Weather by CustomWeather, © 2014

See weather overviewHow to use our weather pages